AC4VM Weather Reports


Display with metric or nautical units.
time (UTC)temp
F
wind
direction
speed
MPH
gust
MPH
rain 1hr
in
rain 24hr
in
rain mn
in
humidity
%
barometer
mb
20260503040007 51 153 1.0 2.0 0.00 0.00 0.00 64 1016.5
20260503034507 52 224 0.0 1.0 0.00 0.00 0.00 64 1016.6
20260503033006 53 224 0.0 2.0 0.00 0.00 0.00 60 1016.4
20260503031506 53 306 3.0 10.0 0.00 0.00 0.00 58 1016.4
20260503030003 54 271 4.0 12.0 0.00 0.00 0.00 57 1016.3
20260503024503 54 280 1.0 5.0 0.00 0.00 0.00 59 1016.1
20260503023100 54 322 2.0 6.0 0.00 0.00 0.00 58 1015.9
20260503021601 54 346 1.0 6.0 0.00 0.00 0.00 58 1015.8
20260503020058 54 30 3.0 7.0 0.00 0.00 0.00 57 1015.5
20260503014609 54 281 1.0 6.0 0.00 0.00 0.00 57 1015.3
20260503013053 54 2 3.0 8.0 0.00 0.00 0.00 54 1015.1
20260503011557 55 38 3.0 8.0 0.00 0.00 0.00 55 1014.8
20260503010051 55 343 2.0 7.0 0.00 0.00 0.00 54 1014.6
20260503004550 55 14 0.0 2.0 0.00 0.00 0.00 54 1014.3
20260503003048 55 0.0 0.0 0.00 0.00 0.00 52 1014.2
20260503001555 56 324 0.0 5.0 0.00 0.00 0.00 49 1013.8
20260503000045 57 270 0.0 4.0 0.00 0.00 0.00 48 1013.6
20260502234547 58 336 2.0 6.0 0.00 0.00 0.00 47 1013.5
20260502233046 59 285 2.0 8.0 0.00 0.00 0.00 45 1013.4
20260502231544 60 277 3.0 11.0 0.00 0.00 0.00 42 1013.3
20260502230043 61 267 7.0 12.0 0.00 0.00 0.00 40 1013.3
20260502224543 60 284 4.0 8.0 0.00 0.00 0.00 43 1013.2
20260502223043 61 257 4.0 9.0 0.00 0.00 0.00 41 1013.2
20260502221543 61 233 1.0 5.0 0.00 0.00 0.00 46 1013.0
20260502220041 61 330 2.0 5.0 0.00 0.00 0.00 42 1012.9
20260502214542 61 30 5.0 12.0 0.00 0.00 0.00 41 1012.8
20260502213042 63 16 9.0 13.0 0.00 0.00 0.00 38 1012.7
20260502211540 61 339 1.0 11.0 0.00 0.00 0.00 38 1012.6
20260502210039 62 28 2.0 8.0 0.00 0.00 0.00 38 1012.6
20260502204543 61 24 3.0 10.0 0.00 0.00 0.00 39 1012.4
20260502203037 62 25 4.0 11.0 0.00 0.00 0.00 39 1012.6
20260502201545 62 322 3.0 10.0 0.00 0.00 0.00 37 1012.8
20260502200035 63 253 1.0 7.0 0.00 0.00 0.00 39 1012.8
20260502194534 62 311 2.0 8.0 0.00 0.00 0.00 40 1013.0
20260502193034 61 343 1.0 6.0 0.00 0.00 0.00 35 1013.1
20260502191538 62 345 6.0 16.0 0.00 0.00 0.00 38 1013.1
20260502190037 62 273 3.0 12.0 0.00 0.00 0.00 36 1013.0
20260502184545 62 289 4.0 11.0 0.00 0.00 0.00 38 1013.2
20260502183038 63 66 3.0 11.0 0.00 0.00 0.00 37 1013.3
20260502181539 62 23 6.0 14.0 0.00 0.00 0.00 38 1013.4
20260502163023 61 359 5.0 13.0 0.00 0.00 0.00 46 1014.5
20260502161522 62 334 4.0 11.0 0.00 0.00 0.00 43 1014.5
20260502151517 59 37 3.0 13.0 0.00 0.00 0.00 45 1014.2
20260502123003 52 339 4.0 11.0 0.00 0.00 0.00 63 1013.9
20260502121601 51 0.0 0.0 0.00 0.00 0.00 64 1014.0
20260502114600 50 329 3.0 8.0 0.00 0.00 0.00 66 1013.9
20260502113056 50 360 3.0 8.0 0.00 0.00 0.00 66 1013.5
20260502111604 50 40 3.0 6.0 0.00 0.00 0.00 67 1013.3
20260502110055 50 332 1.0 5.0 0.00 0.00 0.00 66 1013.5
20260502104550 50 32 1.0 5.0 0.00 0.00 0.00 65 1013.4
20260502103049 50 12 2.0 7.0 0.00 0.00 0.00 65 1013.4
20260502101552 50 327 2.0 9.0 0.00 0.00 0.00 64 1013.2
20260502071528 53 4 2.0 7.0 0.00 0.00 0.00 62 1013.7
20260502070025 53 277 2.0 5.0 0.00 0.00 0.00 61 1013.4
20260502064524 53 333 4.0 9.0 0.00 0.00 0.00 59 1013.5
20260502063027 54 341 5.0 10.0 0.00 0.00 0.00 58 1013.5
20260502061519 54 327 5.0 10.0 0.00 0.00 0.00 57 1013.6
20260502060017 54 33 2.0 12.0 0.00 0.00 0.00 56 1013.6
20260502054517 54 360 2.0 13.0 0.00 0.00 0.00 55 1013.7
20260502053014 55 6 5.0 10.0 0.00 0.00 0.00 54 1013.5
20260502051512 56 339 5.0 13.0 0.00 0.00 0.00 52 1013.6
20260502050013 56 23 2.0 10.0 0.00 0.00 0.00 51 1013.4
20260502044509 56 0.0 0.0 0.00 0.00 0.00 52 1013.5
20260502043004 56 0.0 0.0 0.00 0.00 0.00 54 1013.2
20260502041634 57 0.0 0.0 0.00 0.00 0.00 55 1013.4